Regional Weather Roundup
Issued by NWS

Home | Current Version | Previous Version | Graphics & Text | Print | Product List | Glossary Off
Versions: 1 2 3 4 5 6 7 8 9 10 11 12 13 14 15 16 17 18 19 20 21 22 23 24 25 26 27 28 29 30 31 32 33 34 35 36 37 38 39 40 41 42 43 44 45 46 47 48 49 50

409
ASUS43 KMKX 251300
RWRWI

WISCONSIN REGIONAL WEATHER ROUNDUP
NATIONAL WEATHER SERVICE MILWAUKEE/SULLIVAN WI
800 AM CDT SUN JUN 25 2017

NOTE: "FAIR" INDICATES FEW OR NO CLOUDS BELOW 12,000 FEET WITH NO
SIGNIFICANT WEATHER AND/OR OBSTRUCTIONS TO VISIBILITY.

WIZ001-002-006>008-014>016-023>028-251400-
NORTHWEST WISCONSIN

CITY           SKY/WX    TMP DP  RH WIND       PRES   REMARKS
SUPERIOR ARPT  NOT AVBL
ASHLAND        LGT RAIN  53  52  96 SW5       30.02S FOG
HAYWARD        CLOUDY    53  50  89 MISG      30.04R
SIREN          CLOUDY    52  50  93 CALM      30.07S
CUMBERLAND     CLOUDY    52  48  87 W9        30.07R
RICE LAKE      CLOUDY    54  50  87 W7        30.08R
CHETEK         CLOUDY    53  50  90 NW10G16   30.07R
LADYSMITH      CLOUDY    55  51  88 W7        30.06R
EAU CLAIRE     NOT AVBL
MENOMONIE      PTSUNNY   56  50  81 W14G21    30.09R
NEW RICHMOND   CLOUDY    54  47  76 W9        30.10R
OSCEOLA        CLOUDY    55  49  80 W8        30.12S
$$

WIZ003>005-009-010-017-018-251400-
NORTH CENTRAL WISCONSIN

CITY           SKY/WX    TMP DP  RH WIND       PRES   REMARKS
MANITOWISH WTR CLOUDY    52  52 100 W5        30.00R
ARBOR VITAE    CLOUDY    56  53  89 NW6       30.00R
WOODRUFF       CLOUDY    56  53  89 NW6       30.00R
RHINELANDER    CLOUDY    54  52  93 NW6       30.01R
EAGLE RIVER    CLOUDY    53  51  94 N6        30.00R
LAND O LAKES   CLOUDY    52  50  95 CALM      30.02R
PHILLIPS       CLOUDY    51  51  98 W3        30.02S
TOMAHAWK       NOT AVBL
MEDFORD        CLOUDY    50  49  95 NW9       30.03S
MERRILL        CLOUDY    55  52  90 W8        30.03R
$$

WIZ029-030-035-036-043>047-251400-
CENTRAL WISCONSIN

CITY           SKY/WX    TMP DP  RH WIND       PRES   REMARKS
WAUSAU         CLOUDY    54  50  86 W8        30.02R
MOSINEE        PTSUNNY   54  50  87 NW8       30.04R
MARSHFIELD     CLOUDY    51  48  89 W12       30.05R
STEVENS POINT  PTSUNNY   52  49  89 W7        30.04R
WAUPACA        PTSUNNY   56  51  82 W9        30.03R
WAUTOMA        SUNNY     58  50  75 W9        30.05R
WISC RAPIDS    MOSUNNY   54  49  83 NW12      30.06R
CAMP DOUGLAS   PTSUNNY   54  50  87 W15G21    30.07R
$$

WIZ011>013-019>022-031-037>040-048>050-251400-
NORTHEAST WISCONSIN

CITY           SKY/WX    TMP DP  RH WIND       PRES   REMARKS
ANTIGO         CLOUDY    53  51  95 NW8       30.01R
SHAWANO        SUNNY     57  52  81 W6        29.98R
OCONTO         CLOUDY    56  52  88 NW7       29.96R
STURGEON BAY     N/A     55  52  89 NW10        N/A
GREEN BAY      PTSUNNY   57  53  86 NW13      29.99R
MANITOWOC      NOT AVBL
APPLETON       MOSUNNY   54  48  82 W13       29.99S
CLINTONVILLE   MOSUNNY   55  48  76 W10G20    30.00R
OSHKOSH        PTSUNNY   56  49  77 W8G21     30.02R
$$

WIZ032>034-041-042-053>061-251400-
SOUTHWEST WISCONSIN

CITY           SKY/WX    TMP DP  RH WIND       PRES   REMARKS
LA CROSSE      CLOUDY    60  50  69 W10       30.10R
SPARTA         CLOUDY    51  50  96 W5        30.10R
VIROQUA        PTSUNNY   53  50  90 W8        30.10S
BOSCOBEL       SUNNY     58  50  75 VRB6      30.12R
PRAIRIE DU CHI SUNNY     56  48  73 NW5       30.13R
PLATTEVILLE    SUNNY     55  52  89 W9        30.13R
$$

WIZ056-057-062-063-064-067-068-251400-
SOUTH CENTRAL WISCONSIN

CITY           SKY/WX    TMP DP  RH WIND       PRES   REMARKS
REEDSBURG      MOSUNNY   54  50  87 W12G17    30.09R
BARABOO/DELLS  SUNNY     55  48  80 W10       30.08R
LONE ROCK      NOT AVBL
MINERAL POINT  SUNNY     55  52  88 W6        30.11S
MADISON        MOSUNNY   56  50  80 NW12G17   30.08R
MIDDLETON      SUNNY     55  51  87 W17       30.09R
WATERTOWN      SUNNY     56  52  86 W8        30.06S
MONROE         SUNNY     55  46  71 W12       30.10S
JANESVILLE     SUNNY     57  52  82 W8        30.09R
$$

WIZ051-052-058>065-066-070>072-251400-
SOUTHEAST WISCONSIN

CITY           SKY/WX    TMP DP  RH WIND       PRES   REMARKS
MILWAUKEE      MOSUNNY   59  50  72 W13       30.05R
WAUKESHA       SUNNY     55  48  76 W13G18    30.06R
MILWAUKEE/TIMM SUNNY     57  46  67 W15G21    30.05R
RACINE         SUNNY     59  50  72 W13       30.07R
KENOSHA        SUNNY     59  49  69 W10       30.07R
FOND DU LAC    CLOUDY    57  48  72 W12       30.04R
SHEBOYGAN      SUNNY     58  51  78 W14       30.00R
WEST BEND      SUNNY     55  48  76 W10       30.03S
JUNEAU         SUNNY     55  49  80 W8        30.06R
$$

LSZ147-162-251400-
LAKE SUPERIOR

STATION/POSITION TIME  TEMP    WIND        PRES    WAVE
                       AIR SEA DIR/SP/G            HT/PER
                 (UTC) (F)     (DEG/KT/KT) (MB)    (FT/S)
W MID LAKE BUOY  1150   45 39  300/  6/  6 1015.4R   0
DEVILS ISLAND    1200   52     250/  9/ 10 1016.1R
SAXON HARBOR     1240   55     230/  4/  5 1015.9R
$$

LMZ867-665-643>646-251400-
LAKE MICHIGAN

STATION/POSITION TIME  TEMP    WIND        PRES    WAVE
                       AIR SEA DIR/SP/G            HT/PER
                 (UTC) (F)     (DEG/KT/KT) (MB)    (FT/S)
CHAMBERS ISLAND  1240   57     320/ 10/ 11 1013.9R
S GREEN BAY BUOY 1230   57     320/ 16/ 19 1014.3R
N MID LAKE BUOY  1150   56 56  330/ 10/ 12 1013.9R   1/ 3
NORTHPORT PIER   1240   58     360/ 10/ 13 1013.9R
KEWAUNEE LAKESHO 1230   55     260/  9/ 12 1014.0R
SHEBOYGAN LAKESH 1200   56     260/ 11/ 15 1015.3R
PORT WASHINGTON  1240   60     280/ 10/ 18 1017.3R
ATWATER BUOY     1109   56 57  260/ 14/ 16 1016.6R
MILWAUKEE LAKESH 1230   58     270/  8/ 11   N/A
S MID LAKE BUOY  1150   58 61  300/ 16/ 19 1016.7R   4/ 5
KENOSHA   LAKESH 1200   57     260/ 12/ 16 1017.9
$$

TC  - TEMPERATURE IN CELSIUS
VSB - VISIBILITY IN STATUTE MILES
WCI - WIND CHILL INDEX
HX  - HEAT INDEX





USA.gov is the U.S. government's official web portal to all federal, state and local government web resources and services.